Tracking 17938 objects as of 23-February-2017
HD Live streaming from Space Station
objects crossing your sky now

CZ-4C DEB

Track CZ-4C DEB now!
10-day predictions


NORAD ID: 38305
Int'l Code: 2010-009J
Perigee: 1,207.5 km
Apogee: 1,332.5 km
Inclination: 63.5 °
Period: 110.8 minutes
Semi major axis: 7641 km
RCS: 0.0013 m2 (small)
Launch date: March 5, 2010
Source: People's Republic of China (PRC)
Launch site: Jiuquan Satellite Launch Center, China (JSC)

Note: This is SATELLITE DEBRIS
Your satellite tracking list
Your tracking list is empty





NASA's NSSDC Master Catalog

Two Line Element Set (TLE):
1 38305U 10009J   17053.10469028 -.00000070  00000-0  27993-4 0  9997
2 38305  63.4976 290.3735 0081781  89.8035 347.7531 12.99801926330422
Source of the keplerian elements: AFSPC